DW7061 Weather Reports


time (UTC)temp
C
wind
direction
speed
KPH
gust
KPH
rain 1hr
cm
rain 24hr
cm
rain mn
cm
humidity
%
barometer
mb
20260507084017 7 0.0 0.0 0.00 0.00 0.00 96 1006.8
20260507083018 7 0.0 0.0 0.00 0.00 0.00 96 1007.0
20260507082017 7 0.0 0.0 0.00 0.00 0.00 96 1007.4
20260507081017 7 0.0 1.6 0.00 0.00 0.00 96 1007.0
20260507080017 7 0.0 4.8 0.00 0.00 0.00 96 1007.0
20260507075017 7 0.0 3.2 0.00 0.00 0.00 96 1006.7
20260507074018 7 0.0 0.0 0.00 0.00 0.00 96 1006.9
20260507073017 7 0.0 1.6 0.00 0.00 0.00 96 1006.9
20260507072017 7 0.0 1.6 0.00 0.00 0.00 96 1006.3
20260507071018 7 0.0 1.6 0.00 0.00 0.00 96 1006.6
20260507070017 7 0.0 3.2 0.00 0.00 0.00 96 1007.0
20260507065016 7 0.0 1.6 0.00 0.00 0.00 96 1006.5
20260507064017 7 0.0 1.6 0.00 0.00 0.00 96 1006.4
20260507063017 7 0.0 0.0 0.00 0.00 0.00 96 1006.2
20260507062017 7 0.0 1.6 0.00 0.00 0.00 96 1006.1
20260507061017 7 0.0 0.0 0.00 0.00 0.00 96 1006.0
20260507060038 7 0.0 0.0 0.00 0.00 0.00 96 1006.3
20260507055017 7 0.0 0.0 0.00 0.00 0.00 96 1006.5
20260507054017 7 0.0 1.6 0.00 0.00 0.00 96 1006.5
20260507053017 7 0.0 1.6 0.00 0.00 0.00 96 1007.0
20260507052017 7 0.0 3.2 0.00 0.00 0.00 96 1006.7
20260507051018 8 0.0 1.6 0.00 0.00 0.00 96 1007.2
20260507050017 8 0.0 4.8 0.00 0.00 0.00 96 1007.3
20260507045019 8 0.0 0.0 0.00 0.00 0.00 96 1007.2
20260507044017 8 0.0 1.6 0.00 0.00 0.00 96 1007.2
20260507043016 8 0.0 1.6 0.00 0.00 0.00 96 1007.1
20260507042018 8 0.0 0.0 0.00 0.00 0.00 96 1006.9
20260507041017 8 0.0 1.6 0.00 0.00 0.00 96 1006.7
20260507040019 8 0.0 0.0 0.00 0.00 0.00 96 1006.7
20260507035018 8 0.0 0.0 0.00 0.00 0.00 96 1006.8
20260507034018 9 0.0 1.6 0.00 0.00 0.00 96 1006.9
20260507033018 9 0.0 1.6 0.00 0.00 0.00 96 1006.8
20260507032017 9 0.0 1.6 0.00 0.00 0.00 96 1006.8
20260507031017 9 0.0 3.2 0.00 0.00 0.00 96 1006.6
20260507030037 9 248 1.6 6.4 0.00 0.00 0.00 96 1006.5
20260507025018 10 0.0 3.2 0.00 0.00 0.00 96 1006.8
20260507024017 10 0.0 3.2 0.00 0.00 0.00 96 1006.6
20260507023018 10 248 1.6 4.8 0.00 0.00 0.00 96 1006.6
20260507022058 10 0.0 3.2 0.00 0.00 0.00 96 1006.4
20260507021017 10 0.0 4.8 0.00 0.00 0.00 96 1006.4
20260507020017 11 0.0 3.2 0.00 0.00 0.00 96 1006.6
20260507015017 11 270 1.6 6.4 0.00 0.00 0.00 96 1006.6
20260507014017 12 270 1.6 3.2 0.00 0.00 0.00 96 1006.5
20260507013038 12 0.0 0.0 0.00 0.00 0.00 96 1006.0
20260507012017 12 0.0 1.6 0.00 0.00 0.00 96 1005.8
20260507010037 13 248 1.6 11.3 0.00 0.00 0.00 97 1005.4
20260507005017 13 248 1.6 4.8 0.00 0.00 0.00 97 1005.4
20260507004018 13 248 1.6 4.8 0.00 0.00 0.00 97 1005.4
20260507003018 13 248 1.6 4.8 0.00 0.00 0.00 97 1005.2
20260507002017 13 248 1.6 6.4 0.00 0.00 0.00 97 1005.0
20260507001018 13 248 3.2 8.0 0.00 0.00 0.00 97 1004.9
20260507000018 13 248 4.8 8.0 0.00 0.00 0.00 97 1004.7
20260506235017 13 248 1.6 6.4 0.00 0.00 0.00 97 1004.6
20260506234017 13 248 3.2 6.4 0.00 0.00 0.00 97 1004.5
20260506233017 13 248 1.6 6.4 0.00 0.00 0.00 97 1004.6
20260506232018 13 225 3.2 9.7 0.00 0.00 0.00 97 1004.4
20260506231017 13 248 1.6 9.7 0.00 0.00 0.00 97 1004.2
20260506230038 13 248 1.6 6.4 0.00 0.00 0.00 96 1004.2
20260506225018 13 248 1.6 6.4 0.00 0.00 0.00 96 1004.1
20260506224038 13 248 3.2 8.0 0.00 0.00 0.00 96 1004.2
20260506223018 13 248 3.2 11.3 0.00 0.00 0.00 96 1004.2
20260506222017 13 248 3.2 8.0 0.00 0.00 0.00 96 1004.3
20260506221018 13 248 3.2 9.7 0.00 0.00 0.00 96 1004.3
20260506220017 13 248 1.6 8.0 0.00 0.00 0.00 96 1004.3
20260506215017 13 248 3.2 6.4 0.00 0.00 0.00 96 1004.3
20260506214017 13 248 3.2 8.0 0.00 0.00 0.00 96 1004.3
20260506213018 13 248 3.2 9.7 0.00 0.00 0.00 96 1004.4
20260506212017 13 248 3.2 9.7 0.00 0.00 0.00 96 1004.4
20260506211038 13 225 3.2 16.1 0.00 0.00 0.00 96 1004.4
20260506210018 13 248 1.6 8.0 0.00 0.00 0.00 96 1004.4
20260506205018 13 225 1.6 8.0 0.00 0.00 0.00 96 1004.6
20260506204017 13 248 3.2 9.7 0.00 0.00 0.00 95 1004.6
20260506203018 13 225 4.8 12.9 0.00 0.00 0.00 95 1004.8
20260506202017 13 248 1.6 8.0 0.00 0.00 0.00 95 1004.9
20260506201017 13 248 1.6 9.7 0.00 0.00 0.00 95 1005.0
20260506200017 13 248 1.6 8.0 0.00 0.00 0.00 95 1005.1
20260506195018 13 248 3.2 6.4 0.00 0.00 0.00 95 1005.3
20260506194017 13 248 1.6 6.4 0.00 0.00 0.00 95 1005.3
20260506193017 13 225 3.2 14.5 0.00 0.00 0.00 95 1005.3
20260506192017 13 248 3.2 16.1 0.00 0.00 0.00 95 1005.5
20260506191037 13 248 3.2 9.7 0.00 0.00 0.00 94 1005.7
20260506190018 13 248 3.2 9.7 0.00 0.00 0.00 94 1005.6
20260506185017 13 135 1.6 12.9 0.00 0.00 0.00 94 1005.5
20260506184018 14 225 1.6 8.0 0.00 0.00 0.00 94 1005.6
20260506183039 14 225 3.2 12.9 0.00 0.00 0.00 93 1005.8
20260506182017 14 270 3.2 12.9 0.00 0.00 0.00 93 1005.9
20260506181017 14 248 1.6 6.4 0.00 0.00 0.00 93 1005.6
20260506180018 15 270 1.6 8.0 0.00 0.00 0.00 93 1005.7
20260506175037 15 180 1.6 6.4 0.00 0.00 0.00 92 1006.2
20260506174037 15 248 3.2 19.3 0.00 0.00 0.00 91 1006.4
20260506173017 15 248 1.6 3.2 0.00 0.00 0.00 91 1006.8
20260506172018 15 0.0 4.8 0.00 0.00 0.00 89 1006.9
20260506171017 16 0.0 4.8 0.00 0.00 0.00 87 1007.0
20260506170017 16 248 1.6 6.4 0.00 0.00 0.00 84 1007.0
20260506165017 16 248 1.6 6.4 0.00 0.00 0.00 82 1006.8
20260506164018 17 248 1.6 8.0 0.00 0.00 0.00 81 1007.0
20260506163017 17 225 1.6 3.2 0.00 0.00 0.00 81 1007.2
20260506162040 17 248 1.6 8.0 0.00 0.00 0.00 82 1007.1
20260506161017 16 248 1.6 6.4 0.00 0.00 0.00 83 1007.2
20260506160018 16 248 1.6 6.4 0.00 0.00 0.00 84 1007.5
20260506155017 16 248 1.6 11.3 0.00 0.00 0.00 84 1007.7
20260506154017 16 248 1.6 4.8 0.00 0.00 0.00 84 1007.7
20260506153017 16 248 1.6 8.0 0.00 0.00 0.00 84 1007.8
20260506152018 16 248 1.6 8.0 0.00 0.00 0.00 85 1008.0
20260506151017 15 225 3.2 17.7 0.00 0.00 0.00 86 1008.0
20260506150017 15 225 3.2 14.5 0.00 0.00 0.00 86 1008.1
20260506145018 15 248 3.2 12.9 0.00 0.00 0.00 85 1008.1
20260506144017 15 248 1.6 6.4 0.00 0.00 0.00 86 1008.1
20260506143017 15 248 3.2 8.0 0.00 0.00 0.00 86 1008.2
20260506142017 15 248 3.2 9.7 0.00 0.00 0.00 86 1008.0
20260506141017 15 225 3.2 9.7 0.00 0.00 0.00 86 1008.4
20260506140157 15 248 4.8 12.9 0.00 0.00 0.00 87 1008.1
20260506135017 15 248 1.6 8.0 0.00 0.00 0.00 87 1007.7
20260506134037 15 270 3.2 8.0 0.00 0.00 0.00 87 1007.9
20260506133018 15 248 3.2 9.7 0.00 0.00 0.00 88 1007.9
20260506132017 15 248 3.2 8.0 0.00 0.00 0.00 87 1008.0
20260506131017 15 248 3.2 9.7 0.00 0.00 0.00 88 1008.1
20260506130017 14 248 1.6 9.7 0.00 0.00 0.00 89 1008.2
20260506125018 14 248 1.6 4.8 0.00 0.00 0.00 89 1008.3
20260506124017 14 248 1.6 6.4 0.00 0.00 0.00 90 1008.4
20260506123037 14 248 1.6 6.4 0.00 0.00 0.00 90 1008.5
20260506122038 13 270 3.2 6.4 0.00 0.00 0.00 90 1008.5
20260506121017 13 248 3.2 6.4 0.00 0.00 0.00 90 1008.6
20260506120017 13 225 1.6 6.4 0.00 0.00 0.00 91 1008.4
20260506115018 13 225 1.6 14.5 0.00 0.00 0.00 91 1008.5
20260506114017 13 248 1.6 6.4 0.00 0.00 0.00 91 1008.6
20260506113017 13 225 3.2 12.9 0.00 0.00 0.00 91 1008.6
20260506112018 13 225 1.6 14.5 0.00 0.00 0.00 91 1008.4
20260506111017 13 225 1.6 12.9 0.00 0.00 0.00 92 1008.6
20260506110017 12 248 1.6 9.7 0.00 0.00 0.00 92 1008.8
20260506105058 13 225 3.2 11.3 0.00 0.00 0.00 92 1008.8
20260506104017 12 248 3.2 8.0 0.00 0.00 0.00 92 1008.9
20260506103037 12 225 1.6 12.9 0.00 0.00 0.00 92 1008.7
20260506102018 12 248 3.2 11.3 0.00 0.00 0.00 92 1008.5
20260506101017 12 248 1.6 8.0 0.00 0.00 0.00 92 1008.6
20260506100018 12 248 1.6 8.0 0.00 0.00 0.00 91 1008.7
20260506095017 12 248 1.6 6.4 0.00 0.00 0.00 91 1008.5
20260506094017 12 248 1.6 4.8 0.00 0.00 0.00 91 1008.6
20260506093037 12 270 1.6 6.4 0.00 0.00 0.00 90 1008.6
20260506092058 12 248 1.6 8.0 0.00 0.00 0.00 90 1008.5
20260506091017 12 113 1.6 16.1 0.00 0.00 0.00 90 1008.7
20260506090017 13 270 3.2 16.1 0.00 0.00 0.00 90 1008.7
20260506085038 13 225 3.2 8.0 0.00 0.00 0.00 89 1008.8